Temp
4 4 3 3 2 2 2 1 1 1 2 2 2 2 3 3 2 3 4 5 4 5 7 8 10 11 12
3 3 2 2 2 2 2 1 1 1 1 1 1 1 1 2 2 2 2 2 5 6 7 7 8 9 10
3 3 3 2 2 2 2 2 1 1 1 1 1 1 1 1 1 1 1 1 3 3 4 4 5 6 6
2 3 3 3 3 2 2 2 2 2 1 1 1 1 1 1 1 1 0 1 2 2 2 2 3 3 4
2 1 1 2 2 2 2 1 1 2 1 1 1 1 1 2 1 0 0 0 1 1 1 1 2 2 2
1 1 1 2 2 1 0 0 1 1 1 0 0 0 1 1 1 0 -0 0 0 0 0 0 1 1 1
-0 0 1 0 -0 -0 -0 -0 -1 -1 -0 -0 -0 0 0 -0 -0 -0 -0 -1 -0 -0 -0 -0 0 0 0
-0 -1 -1 -1 -1 -1 -1 -1 -2 -1 0 -0 -0 -0 -0 -1 -1 -1 -1 -1 -1 -1 -1 -1 -1 -0 -0
-0 -1 -1 -1 -1 -1 -1 -1 -1 -1 -1 -1 -1 -1 -2 -2 -1 -1 -1 -1 -1 -1 -1 -1 -1 -1 -1
-1 -1 -1 -1 -1 -1 -1 -2 -2 -2 -1 -1 -2 -2 -3 -2 -2 -2 -2 -2 -2 -1 -2 -2 -1 -1 -2
-2 -1 -1 -1 -1 -1 -2 -2 -2 -2 -2 -2 -2 -3 -3 -3 -3 -3 -3 -3 -3 -3 -3 -2 -2 -2 -1
-2 -2 -2 -2 -2 -2 -3 -3 -4 -4 -4 -4 -4 -4 -4 -4 -4 -3 -3 -4 -4 -3 -3 -3 -3 -3 -2
-2 -2 -2 -3 -3 -4 -4 -4 -4 -4 -4 -4 -4 -4 -5 -4 -4 -4 -4 -5 -5 -4 -4 -4 -4 -3 -3
-3 -3 -3 -3 -3 -4 -4 -4 -4 -5 -4 -4 -4 -5 -5 -5 -5 -5 -5 -5 -5 -5 -4 -4 -4 -4 -4
-3 -4 -4 -4 -4 -4 -4 -5 -5 -5 -5 -5 -5 -5 -5 -6 -6 -6 -6 -6 -6 -5 -5 -4 -4 -4 -4
-4 -5 -5 -5 -5 -5 -6 -6 -6 -6 -6 -6 -6 -6 -5 -6 -6 -6 -6 -6 -5 -5 -5 -5 -5 -4 -4
-6 -6 -6 -6 -6 -6 -6 -6 -6 -6 -6 -6 -6 -6 -6 -6 -5 -5 -5 -5 -5 -5 -5 -4 -5 -4 -4
Height
749 749 747 744 740 736 734 733 732 728 724 725 719 720 712 707 713 716 719 716 719 717 714 714 714 714 716
748 747 747 746 745 741 737 734 731 729 727 723 722 721 717 716 716 716 717 720 716 711 713 713 712 712 712
748 746 744 742 741 739 738 735 732 729 727 725 721 718 717 715 716 716 715 720 717 711 712 712 712 710 709
749 746 744 741 739 737 734 732 729 727 725 723 722 722 720 719 716 716 715 717 718 715 707 710 708 706 706
749 746 744 741 740 739 736 734 731 728 726 725 725 723 721 719 717 717 715 715 716 711 709 707 705 701 702
749 746 744 742 741 740 739 736 732 730 728 726 725 722 719 718 717 716 715 715 715 711 706 702 697 697 700
748 745 742 741 740 739 737 735 733 730 728 724 723 720 719 716 714 713 711 710 711 707 703 700 696 697 695
745 743 741 739 737 736 734 732 729 727 726 721 720 718 715 713 711 710 709 708 704 700 696 694 692 691 689
742 740 738 736 734 732 730 729 726 723 722 720 716 714 713 710 708 706 706 703 700 697 694 693 690 688 685
738 735 733 731 730 729 727 726 724 720 717 718 716 716 710 706 705 704 701 699 695 692 690 689 686 686 681
733 730 728 727 726 724 724 723 721 719 717 717 713 713 711 705 699 698 696 691 689 687 684 683 680 678 674
729 726 725 724 723 721 720 719 718 716 715 714 711 710 707 702 697 691 689 685 683 679 677 675 674 673 671
725 723 723 722 719 717 715 714 712 710 709 708 706 705 704 699 694 689 686 681 678 674 673 671 668 666 664
722 721 720 718 716 714 712 710 707 704 703 702 701 699 696 695 693 686 685 682 675 673 671 666 664 662 659
719 718 717 715 712 710 708 705 703 699 696 695 694 693 690 689 686 681 676 675 672 669 668 663 658 657 656
716 715 713 710 708 706 704 702 698 695 692 690 688 686 684 681 680 674 671 668 665 664 663 660 655 652 651
712 710 708 705 703 701 698 696 692 689 686 684 682 681 677 672 669 669 664 662 660 658 656 654 649 644 643
Wind_Speed
11 12 12 13 14 14 12 11 12 12 11 14 16 15 15 16 15 13 13 15 14 13 11 11 14 17 20
11 11 11 12 13 13 13 11 13 11 10 15 15 14 13 9 8 10 13 16 15 16 15 13 13 15 18
12 12 12 12 14 12 13 13 15 13 10 13 15 16 14 11 10 9 12 17 13 9 8 10 11 10 12
12 13 14 11 12 15 16 16 17 14 12 16 15 14 12 11 10 14 15 14 10 11 10 13 14 15 16
10 10 12 13 11 12 13 17 18 10 10 17 19 17 15 10 9 15 17 13 11 13 14 14 16 16 18
13 11 11 14 13 14 15 14 5 10 17 17 16 17 15 15 14 17 16 11 10 16 17 19 17 18 20
14 14 15 14 14 16 15 14 12 17 18 18 15 16 17 17 19 20 16 10 13 19 16 18 17 20 21
15 17 17 17 17 17 15 15 17 17 13 14 16 18 18 20 20 15 11 10 19 18 20 20 20 21 23
14 17 18 17 16 16 15 15 14 17 17 16 13 17 17 22 10 8 14 19 20 22 18 20 22 21 21
19 19 17 15 15 15 16 15 14 10 2 3 12 13 6 10 6 20 22 21 24 18 21 21 16 19 20
20 17 14 15 14 12 11 13 14 17 19 20 14 13 11 18 18 22 25 22 21 24 23 18 20 14 17
16 15 14 14 14 14 14 16 19 23 23 21 20 17 17 19 19 20 24 25 25 25 23 22 15 19 17
14 14 15 15 15 17 19 18 19 22 23 23 24 24 21 21 21 26 26 21 27 24 17 22 25 22 24
14 15 16 17 16 15 16 17 17 20 21 22 23 24 23 23 23 25 22 15 20 25 25 26 24 22 23
14 15 16 16 16 16 16 17 16 19 21 20 19 21 23 23 22 25 27 25 25 23 21 23 26 23 22
15 16 17 17 18 18 18 17 18 20 22 20 19 18 19 21 25 27 27 27 25 23 20 19 24 26 23
16 17 19 20 19 18 18 19 19 21 22 21 18 17 9 10 21 20 24 22 22 22 23 20 21 29 26
Wind_Direction
352 353 351 352 354 355 359 359 2 358 7 7 10 0 1 358 351 334 316 311 324 327 315 307 270 254 250
334 346 345 347 350 350 352 353 1 350 358 3 1 2 3 4 337 346 338 323 306 316 304 299 295 282 274
322 330 335 340 343 348 350 350 352 351 352 357 355 353 350 357 358 353 336 325 324 354 334 323 319 317 302
327 329 335 333 338 346 342 347 344 343 345 350 347 341 342 335 342 334 339 331 319 328 337 328 326 320 310
305 327 319 324 341 334 337 341 335 338 338 340 335 332 333 330 328 332 331 328 318 326 321 317 318 318 314
309 307 307 309 333 337 327 318 315 319 328 322 325 322 322 321 318 321 322 304 303 327 322 321 316 314 308
291 296 310 315 311 309 307 307 305 304 306 297 312 305 314 309 313 316 313 306 308 320 320 318 314 307 307
292 299 304 299 297 297 299 299 295 296 295 294 304 299 304 305 306 306 303 307 319 320 321 318 314 309 306
288 291 293 290 287 292 293 296 293 294 297 301 297 306 304 299 295 298 311 314 316 315 314 314 311 309 303
295 291 288 283 283 278 281 282 292 304 305 340 309 320 310 281 281 298 306 304 310 307 310 312 311 310 307
292 288 287 283 282 277 275 282 289 276 282 300 296 280 264 290 292 297 300 304 305 303 306 304 308 311 308
286 287 288 287 285 285 283 280 276 277 283 285 287 285 287 286 289 296 300 300 301 300 300 307 300 305 300
281 285 287 287 286 287 288 283 281 279 280 279 272 275 274 279 287 292 302 300 295 295 299 299 302 303 305
283 287 292 290 286 286 281 283 278 279 280 275 272 270 272 273 280 284 284 283 288 293 294 293 294 291 294
283 288 286 286 286 288 285 283 274 281 285 282 277 272 263 262 266 270 278 278 280 285 288 284 286 287 285
283 282 282 285 286 285 281 274 273 277 279 280 281 280 273 263 260 266 269 272 278 283 280 283 286 287 286
279 280 282 284 285 282 278 274 269 271 274 275 270 265 272 271 268 260 263 265 272 275 275 266 271 281 286